sat.trackr.live / text

‹ back to catalog

ORBCOMM FM118

NORAD 41183 · 2015-081E

PAYLOAD ACTIVE UNKNOWN

§ Identity

Operator
Country
ORB
Launch date
2015-12-22
Launch site
AFETR
Launch vehicle
Mass (kg)
RCS (m²)
0.51

Purposes: comms

External: N2YO · Heavens-Above · Gunter

§ Orbital elements

Epoch: 2026-05-25T04:41:00.643776Z

Period
98.71 min
Inclination
47.0033°
Eccentricity
0.0004032
Mean motion
14.58856955 rev/d
Perigee alt
694.0 km
Apogee alt
699.7 km
Semi-major
7,075.0 km
B*
1.6828e-4
RAAN
110.4783°
Arg perigee
289.7893°
Mean anomaly
70.2558°
Rev number
55,437

§ Raw data

ORBCOMM FM1181 41183U 15081E   26145.19514634  .00000624  00000+0  16828-3 0  99922 41183  47.0033 110.4783 0004032 289.7893  70.2558 14.58856955554372

JSON: /api/v1/satellites/41183 · /tle

For live sub-satellite position, see the globe view (requires WebGL).

§ Visibility from observer

Set your observer location to see the next 7 days of passes ≥ 10°. The values pass through the URL so the page stays shareable.

No JS? Fill the form by hand. The geolocation button needs JavaScript.

§ Radio — SatNOGS DB

ModeDescriptionDownlinkUplink
FM Telemetry 137.288 MHz

1 transmitter · refreshed weekly from db.satnogs.org